This is the latest recevied weather packets stored in our database for station/object KQ4DLB-13. If no packets are shown the sender has not sent any weather packets the latest 10 day(s).
| Time | Temp. | Humidity | Pressure | Rain* | Wind** | Luminosity | Snow |
|---|---|---|---|---|---|---|---|
| 1777575002 | 16.67° C | 42% | 992.1 hPa | 0 mm | - | 850 W/m² | - |
| 1777574702 | 16.67° C | 44% | 992.1 hPa | 0 mm | - | 884 W/m² | - |
| 1777574402 | 16.11° C | 46% | 992.1 hPa | 0 mm | - | 820 W/m² | - |
| 1777574102 | 16.11° C | 44% | 991.8 hPa | 0 mm | - | 719 W/m² | - |
| 1777573802 | 16.11° C | 45% | 991.8 hPa | 0 mm | - | 648 W/m² | - |
| 1777573502 | 16.11° C | 47% | 991.7 hPa | 0 mm | - | 611 W/m² | - |
| 1777573202 | 16.11° C | 44% | 991.8 hPa | 0 mm | - | 568 W/m² | - |
| 1777572902 | 16.11° C | 45% | 991.9 hPa | 0 mm | - | 684 W/m² | - |
| 1777572602 | 16.67° C | 45% | 992 hPa | 0 mm | - | 684 W/m² | - |
| 1777572302 | 16.67° C | 45% | 992.1 hPa | 0 mm | - | 625 W/m² | - |
| 1777572002 | 16.11° C | 45% | 992.2 hPa | 0 mm | - | 762 W/m² | - |
| 1777571702 | 16.11° C | 44% | 992.2 hPa | 0 mm | - | 810 W/m² | - |
| 1777571403 | 16.11° C | 43% | 992.4 hPa | 0 mm | - | 719 W/m² | - |
| 1777571102 | 16.11° C | 44% | 992.5 hPa | 0 mm | - | 732 W/m² | - |
| 1777570802 | 16.11° C | 43% | 992.5 hPa | 0 mm | - | 757 W/m² | - |
| 1777570502 | 16.11° C | 45% | 992.5 hPa | 0 mm | - | 684 W/m² | - |
| 1777570202 | 16.11° C | 47% | 992.6 hPa | 0 mm | - | 704 W/m² | - |
| 1777569902 | 16.11° C | 46% | 992.7 hPa | 0 mm | - | 734 W/m² | - |
| 1777569602 | 16.11° C | 45% | 992.7 hPa | 0 mm | - | 743 W/m² | - |
| 1777569302 | 16.11° C | 44% | 992.7 hPa | 0 mm | - | 759 W/m² | - |
| 1777569002 | 16.11° C | 45% | 992.7 hPa | 0 mm | - | 763 W/m² | - |
| 1777568702 | 16.11° C | 46% | 992.5 hPa | 0 mm | - | 769 W/m² | - |
| 1777568402 | 16.11° C | 45% | 992.5 hPa | 0 mm | - | 744 W/m² | - |
| 1777568102 | 16.11° C | 44% | 992.5 hPa | 0 mm | - | 692 W/m² | - |
| 1777567803 | 15.56° C | 45% | 992.5 hPa | 0 mm | - | 689 W/m² | - |
* Rain latest hour (hover to see other rain measurements)
** Current wind speed in m/s (hover to see current wind gust speed)